Home   Weather   41°21'N, 81°35'W   Past weeks
Flag for USA

Past Weather in 41°21'N, 81°35'W, USA — Yesterday and Last 2 Weeks

Now
91 °F

Scattered clouds.


Feels Like: 91 °F
Forecast: 87 / 64 °F
Wind: 5 mph from North

Location: Cleveland-Hopkins International Airport

Current Time: Jul 15, 2019 at 4:52:17 pm

Latest Report: Jul 15, 2019 at 3:51 pm


Visibility: 10 mi

Pressure: 30.06 "Hg

Humidity: 37%

Dew Point: 61 °F

Location of 41°21'N, 81°35'WLocation

Past Weather in 41°21'N, 81°35'W — Graph

°F

41°21'N, 81°35'W Temperature Yesterday

Maximum temperature yesterday: 82 °F (at 4:51 pm)
Minimum temperature yesterday: 67 °F (at 11:51 pm)
Average temperature yesterday: 76 °F

High & Low Weather Summary for the Past Weeks

 TemperatureHumidityPressure
High93 °F (Jul 10, 3:51 pm)94% (Jul 4, 6:51 am)30.15 "Hg (Jul 4, 6:51 am)
Low59 °F (Jul 9, 1:51 am)25% (Jul 14, 5:51 pm)29.79 "Hg (Jul 11, 5:51 pm)
Average77 °F65%29.98 "Hg
* Reported Jun 30 2:51 pm — Jul 15 2:51 pm, 41°21'N, 81°35'W. Weather by CustomWeather, © 2019

Note: Actual official high and low records may vary slightly from our data, if they occured in-between our weather recording intervals... More about our weather records

Advertising

41°21'N, 81°35'W Weather History for the Previous 24 Hours

Scroll right to see more
 ConditionsComfort  
Time TempWeatherWind HumidityBarometerVisibility
2:51 pm
Mon, Jul 15
91 °FPassing clouds.5 mph36%30.09 "Hg10 mi
1:51 pm89 °FPassing clouds.7 mph35%30.10 "Hg10 mi
12:51 pm87 °FPassing clouds.5 mph35%30.11 "Hg10 mi
11:51 am85 °FPassing clouds.5 mph37%30.12 "Hg10 mi
10:51 am82 °FScattered clouds.5 mph41%30.14 "Hg10 mi
9:51 am79 °FScattered clouds.7 mph45%30.15 "Hg10 mi
8:51 am75 °FScattered clouds.7 mph55%30.15 "Hg10 mi
7:51 am69 °FScattered clouds.5 mph68%30.15 "Hg10 mi
6:51 am64 °FScattered clouds.6 mph73%30.14 "Hg10 mi
5:51 am62 °FPassing clouds.No wind78%30.13 "Hg10 mi
4:51 am65 °FPassing clouds.3 mph70%30.11 "Hg10 mi
3:51 am65 °FPassing clouds.No wind70%30.11 "Hg10 mi
2:51 am66 °FPassing clouds.3 mph68%30.12 "Hg10 mi
1:51 am67 °FPassing clouds.3 mph66%30.13 "Hg10 mi
12:51 am66 °FClear.3 mph68%30.13 "Hg10 mi
11:51 pm
Sun, Jul 14
67 °FClear.No wind66%30.12 "Hg10 mi
10:51 pm69 °FPassing clouds.6 mph59%30.13 "Hg10 mi
9:51 pm74 °FClear.No wind45%30.13 "Hg10 mi
8:51 pm76 °FPassing clouds.6 mph40%30.11 "Hg10 mi
7:51 pm79 °FPassing clouds.7 mph38%30.11 "Hg10 mi
6:51 pm81 °FPassing clouds.6 mph34%30.12 "Hg10 mi
5:51 pm82 °FPassing clouds.5 mph25%30.13 "Hg10 mi
4:51 pm82 °FSunny.8 mph32%30.14 "Hg10 mi
Weather by CustomWeather, © 2019

See weather overview

LIVE PARTIAL LUNAR ECLIPSE – Watch the eclipse as it happens